When you browse on this site, cookies collect data to enhance your experience and personalize the content and advertising you see.
Visit our Privacy Policy to learn more. By continuing to use the site, you agree to this use of cookies and data.
  • In Deutschland
  • Länderverzeichnis
  • Für 7 Tage
  • Wassertemperatur
  • Wetterkarte
  • Widgets
  • user-avatar
    Anmelden

    Stündliche Wetter Sherpur

    Heute, 23 September, Montag

    Zeit Temperatur Niederschläge Wind Luftdruck Luftfeuchtigkeit
    00:00 +19°C° 0 mm 1 m/S 612 mmHg 38%
    01:00 +18°C° 0 mm 1 m/S 612 mmHg 37%
    02:00 +16°C° 0 mm 1 m/S 612 mmHg 35%
    03:00 +16°C° 0 mm 1 m/S 612 mmHg 32%
    04:00 +15°C° 0 mm 1 m/S 611 mmHg 29%
    05:00 +15°C° 0 mm 1 m/S 612 mmHg 28%
    06:00 +18°C° 0 mm 1 m/S 613 mmHg 24%
    07:00 +20°C° 0 mm 1 m/S 614 mmHg 20%
    08:00 +22°C° 0 mm 1 m/S 615 mmHg 16%
    09:00 +23°C° 0 mm 1 m/S 615 mmHg 14%
    10:00 +25°C° 0 mm 1 m/S 616 mmHg 13%
    11:00 +27°C° 0 mm 1 m/S 616 mmHg 11%
    12:00 +28°C° 0 mm 1 m/S 616 mmHg 10%
    13:00 +29°C° 0 mm 1 m/S 616 mmHg 9%
    14:00 +30°C° 0 mm 2 m/S 615 mmHg 8%
    15:00 +30°C° 0 mm 2 m/S 615 mmHg 8%
    16:00 +30°C° 0 mm 2 m/S 615 mmHg 8%
    17:00 +30°C° 0 mm 2 m/S 615 mmHg 8%
    18:00 +27°C° 0 mm 1 m/S 614 mmHg 11%
    19:00 +24°C° 0 mm 1 m/S 613 mmHg 15%
    20:00 +21°C° 0 mm 1 m/S 612 mmHg 18%
    21:00 +20°C° 0 mm 1 m/S 612 mmHg 22%
    22:00 +17°C° 0 mm 0 m/S 612 mmHg 25%
    23:00 +17°C° 0 mm 0 m/S 612 mmHg 29%

    Morgen, 24 September, Dienstag

    Zeit Temperatur Niederschläge Wind Luftdruck Luftfeuchtigkeit
    00:00 +16°C° 0 mm 0 m/S 611 mmHg 31%
    01:00 +15°C° 0 mm 0 m/S 611 mmHg 33%
    02:00 +15°C° 0 mm 0 m/S 611 mmHg 35%
    03:00 +14°C° 0 mm 0 m/S 611 mmHg 38%
    04:00 +14°C° 0 mm 0 m/S 610 mmHg 42%
    05:00 +13°C° 0 mm 0 m/S 610 mmHg 45%
    06:00 +16°C° 0 mm 0 m/S 612 mmHg 41%
    07:00 +18°C° 0 mm 0 m/S 613 mmHg 37%
    08:00 +22°C° 0 mm 1 m/S 615 mmHg 32%
    09:00 +24°C° 0 mm 1 m/S 615 mmHg 32%
    10:00 +25°C° 0 mm 1 m/S 615 mmHg 31%
    11:00 +27°C° 0 mm 1 m/S 615 mmHg 30%
    12:00 +28°C° 0 mm 2 m/S 615 mmHg 26%
    13:00 +29°C° 0 mm 2 m/S 615 mmHg 23%
    14:00 +30°C° 0 mm 2 m/S 615 mmHg 19%
    15:00 +30°C° 0 mm 2 m/S 615 mmHg 19%
    16:00 +30°C° 0 mm 2 m/S 615 mmHg 19%
    17:00 +30°C° 0 mm 2 m/S 614 mmHg 20%
    18:00 +28°C° 0 mm 2 m/S 614 mmHg 28%
    19:00 +25°C° 0 mm 2 m/S 613 mmHg 36%
    20:00 +22°C° 0 mm 1 m/S 613 mmHg 45%
    21:00 +22°C° 0 mm 1 m/S 613 mmHg 47%
    22:00 +21°C° 0 mm 1 m/S 613 mmHg 49%
    23:00 +20°C° 0 mm 1 m/S 613 mmHg 51%

    übermorgen, 25 September, Mittwoch

    Zeit Temperatur Niederschläge Wind Luftdruck Luftfeuchtigkeit
    00:00 +17°C° 0 mm 0 m/S 612 mmHg 52%
    01:00 +17°C° 0 mm 0 m/S 612 mmHg 53%
    02:00 +16°C° 0 mm 0 m/S 611 mmHg 54%
    03:00 +15°C° 0 mm 0 m/S 611 mmHg 56%
    04:00 +15°C° 0 mm 0 m/S 611 mmHg 58%
    05:00 +14°C° 0 mm 0 m/S 611 mmHg 60%
    06:00 +16°C° 0 mm 0 m/S 612 mmHg 52%
    07:00 +18°C° 0 mm 0 m/S 613 mmHg 44%
    08:00 +22°C° 0 mm 1 m/S 615 mmHg 37%
    09:00 +24°C° 0 mm 1 m/S 615 mmHg 35%
    10:00 +25°C° 0 mm 1 m/S 615 mmHg 34%
    11:00 +27°C° 0 mm 2 m/S 616 mmHg 33%
    12:00 +28°C° 0 mm 2 m/S 616 mmHg 29%
    13:00 +29°C° 0 mm 2 m/S 616 mmHg 26%
    14:00 +30°C° 0 mm 2 m/S 615 mmHg 23%
    15:00 +30°C° 0 mm 2 m/S 615 mmHg 23%
    16:00 +30°C° 0 mm 3 m/S 615 mmHg 24%
    17:00 +30°C° 0 mm 3 m/S 615 mmHg 24%
    18:00 +27°C° 0 mm 2 m/S 614 mmHg 33%
    19:00 +25°C° 0 mm 2 m/S 614 mmHg 41%
    20:00 +23°C° 0 mm 1 m/S 614 mmHg 49%
    21:00 +22°C° 0 mm 1 m/S 614 mmHg 52%
    22:00 +21°C° 0 mm 1 m/S 614 mmHg 54%
    23:00 +21°C° 0 mm 1 m/S 613 mmHg 57%

    26 September, Donnerstag

    Zeit Temperatur Niederschläge Wind Luftdruck Luftfeuchtigkeit
    00:00 +18°C° 0 mm 0 m/S 613 mmHg 59%
    01:00 +17°C° 0 mm 0 m/S 613 mmHg 62%
    02:00 +17°C° 0 mm 0 m/S 612 mmHg 64%
    03:00 +16°C° 0 mm 0 m/S 612 mmHg 66%
    04:00 +16°C° 0 mm 0 m/S 612 mmHg 68%
    05:00 +15°C° 0 mm 0 m/S 612 mmHg 69%
    06:00 +17°C° 0 mm 0 m/S 614 mmHg 62%
    07:00 +19°C° 0 mm 0 m/S 615 mmHg 54%
    08:00 +21°C° 0 mm 0 m/S 616 mmHg 46%
    09:00 +25°C° 0 mm 1 m/S 616 mmHg 42%
    10:00 +26°C° 0 mm 1 m/S 616 mmHg 37%
    11:00 +28°C° 0 mm 2 m/S 617 mmHg 32%
    12:00 +29°C° 0 mm 2 m/S 617 mmHg 27%
    13:00 +30°C° 0 mm 2 m/S 616 mmHg 23%
    14:00 +31°C° 0 mm 2 m/S 616 mmHg 18%
    15:00 +31°C° 0 mm 2 m/S 616 mmHg 18%
    16:00 +31°C° 0 mm 2 m/S 616 mmHg 17%
    17:00 +31°C° 0 mm 2 m/S 615 mmHg 16%
    18:00 +28°C° 0 mm 2 m/S 615 mmHg 22%
    19:00 +26°C° 0 mm 2 m/S 614 mmHg 28%
    20:00 +23°C° 0 mm 1 m/S 614 mmHg 34%
    21:00 +22°C° 0 mm 1 m/S 614 mmHg 36%
    22:00 +21°C° 0 mm 1 m/S 613 mmHg 37%
    23:00 +20°C° 0 mm 1 m/S 613 mmHg 39%

    27 September, Freitag

    Zeit Temperatur Niederschläge Wind Luftdruck Luftfeuchtigkeit
    00:00 +20°C° 0 mm 1 m/S 613 mmHg 40%
    01:00 +17°C° 0 mm 0 m/S 612 mmHg 41%
    02:00 +16°C° 0 mm 0 m/S 612 mmHg 42%
    03:00 +15°C° 0 mm 0 m/S 612 mmHg 44%
    04:00 +15°C° 0 mm 0 m/S 612 mmHg 45%
    05:00 +15°C° 0 mm 0 m/S 611 mmHg 46%
    06:00 +17°C° 0 mm 0 m/S 612 mmHg 40%
    07:00 +19°C° 0 mm 0 m/S 614 mmHg 34%
    08:00 +21°C° 0 mm 0 m/S 615 mmHg 28%
    09:00 +23°C° 0 mm 0 m/S 615 mmHg 25%
    10:00 +26°C° 0 mm 1 m/S 615 mmHg 21%
    11:00 +28°C° 0 mm 1 m/S 616 mmHg 18%
    12:00 +29°C° 0 mm 1 m/S 615 mmHg 15%
    13:00 +30°C° 0 mm 2 m/S 615 mmHg 12%
    14:00 +32°C° 0 mm 2 m/S 615 mmHg 9%
    15:00 +31°C° 0 mm 3 m/S 615 mmHg 8%
    16:00 +32°C° 0 mm 4 m/S 615 mmHg 8%
    17:00 +32°C° 0 mm 5 m/S 614 mmHg 7%
    18:00 +28°C° 0 mm 4 m/S 614 mmHg 10%
    19:00 +25°C° 0 mm 3 m/S 613 mmHg 13%
    20:00 +23°C° 0 mm 2 m/S 613 mmHg 16%
    21:00 +21°C° 0 mm 2 m/S 612 mmHg 17%
    22:00 +20°C° 0 mm 2 m/S 612 mmHg 18%
    23:00 +19°C° 0 mm 2 m/S 612 mmHg 19%

    28 September, Samstag

    Zeit Temperatur Niederschläge Wind Luftdruck Luftfeuchtigkeit
    00:00 +18°C° 0 mm 2 m/S 612 mmHg 20%
    01:00 +18°C° 0 mm 1 m/S 611 mmHg 21%
    02:00 +16°C° 0 mm 1 m/S 611 mmHg 22%
    03:00 +16°C° 0 mm 1 m/S 610 mmHg 23%
    04:00 +15°C° 0 mm 1 m/S 610 mmHg 24%
    05:00 +15°C° 0 mm 1 m/S 610 mmHg 25%
    06:00 +18°C° 0 mm 1 m/S 611 mmHg 22%
    07:00 +20°C° 0 mm 1 m/S 611 mmHg 20%
    08:00 +22°C° 0 mm 1 m/S 612 mmHg 17%
    09:00 +24°C° 0 mm 1 m/S 613 mmHg 15%
    10:00 +26°C° 0 mm 1 m/S 613 mmHg 13%
    11:00 +27°C° 0 mm 1 m/S 613 mmHg 11%
    12:00 +28°C° 0 mm 1 m/S 613 mmHg 10%
    13:00 +29°C° 0 mm 1 m/S 613 mmHg 9%
    14:00 +30°C° 0 mm 2 m/S 612 mmHg 8%
    15:00 +30°C° 0 mm 2 m/S 612 mmHg 8%
    16:00 +30°C° 0 mm 2 m/S 612 mmHg 8%
    17:00 +30°C° 0 mm 2 m/S 612 mmHg 8%
    18:00 +27°C° 0 mm 2 m/S 611 mmHg 11%
    19:00 +24°C° 0 mm 2 m/S 611 mmHg 13%
    20:00 +21°C° 0 mm 2 m/S 610 mmHg 16%
    21:00 +20°C° 0 mm 2 m/S 610 mmHg 19%
    22:00 +20°C° 0 mm 1 m/S 610 mmHg 22%
    23:00 +19°C° 0 mm 1 m/S 610 mmHg 24%
    Mehr zeigen